CFG68C LEPA-EDDH

Flight info

Callsign CFG68C
Flight time 2h 8m
Altitude 36000
Route MEROS N853 LUMAS DCT MAXIR DCT LUSOL DCT BODRU DCT OKTET DCT IRMAR DCT KINES DCT VANAS DCT MOBLO DCT UBIMA DCT SOSAL DCT KORED DCT BERSU N871 DITON/N0452F370 DCT LOKTA DCT TEDGO DCT HAREM DCT LOHRE DCT ELNAT/N0452F360 P605 NOLGO NOLGO6A
Aircraft A320/M-SDE3FGHIRWY/LB1

Departure

Time 2026-05-06 16:37
Airport Palma de Mallorca Airport (LEPA)

Arrival

Time 2026-05-06 18:45
Airport Hamburg Helmut Schmidt Airport (EDDH)
Time Latitude Longitude Altitude Speed Heading
2026-05-06 16:17 39.55002 2.73723 30 ft 0 kts 238°
2026-05-06 16:28 39.55003 2.73725 30 ft 2 kts 238°
2026-05-06 16:28 39.55012 2.73743 30 ft 2 kts 240°
2026-05-06 16:29 39.55021 2.73761 30 ft 2 kts 238°
2026-05-06 16:29 39.55029 2.73779 30 ft 2 kts 237°
2026-05-06 16:29 39.55038 2.73797 30 ft 2 kts 234°
2026-05-06 16:29 39.55048 2.73814 30 ft 2 kts 227°
2026-05-06 16:30 39.55061 2.73829 30 ft 2 kts 180°
2026-05-06 16:30 39.55070 2.73827 30 ft 1 kts 147°
2026-05-06 16:30 39.55072 2.73825 30 ft 0 kts 148°
2026-05-06 16:31 39.55067 2.73830 30 ft 2 kts 148°
2026-05-06 16:32 39.55021 2.73866 30 ft 12 kts 148°
2026-05-06 16:32 39.54952 2.73920 30 ft 11 kts 149°
2026-05-06 16:32 39.54893 2.73967 30 ft 9 kts 149°
2026-05-06 16:32 39.54822 2.73999 30 ft 15 kts 204°
2026-05-06 16:33 39.54715 2.73959 30 ft 11 kts 207°
2026-05-06 16:33 39.54654 2.73840 30 ft 22 kts 239°
2026-05-06 16:33 39.54569 2.73652 30 ft 25 kts 240°
2026-05-06 16:34 39.54396 2.73292 30 ft 0 kts 238°
2026-05-06 16:34 39.54395 2.73291 29 ft 2 kts 238°
2026-05-06 16:34 39.54358 2.73214 30 ft 15 kts 236°
2026-05-06 16:35 39.54291 2.73221 30 ft 11 kts 109°
2026-05-06 16:35 39.54278 2.73311 30 ft 9 kts 91°
2026-05-06 16:35 39.54274 2.73418 30 ft 11 kts 94°
2026-05-06 16:35 39.54280 2.73481 30 ft 10 kts 72°
2026-05-06 16:36 39.54318 2.73576 30 ft 21 kts 59°
2026-05-06 16:36 39.54497 2.73953 30 ft 83 kts 58°
2026-05-06 16:36 39.54907 2.74821 30 ft 140 kts 59°
2026-05-06 16:36 39.55487 2.76013 328 ft 155 kts 56°
2026-05-06 16:37 39.56048 2.77222 851 ft 162 kts 58°
2026-05-06 16:37 39.56651 2.78535 1299 ft 174 kts 59°
2026-05-06 16:37 39.57284 2.79903 1812 ft 185 kts 59°
2026-05-06 16:37 39.57988 2.81443 2042 ft 209 kts 59°
2026-05-06 16:38 39.58747 2.83147 2430 ft 227 kts 60°
2026-05-06 16:38 39.59542 2.84954 3076 ft 233 kts 59°
2026-05-06 16:38 39.60342 2.86743 3881 ft 232 kts 58°
2026-05-06 16:38 39.61151 2.88538 4710 ft 229 kts 58°
2026-05-06 16:39 39.61974 2.90356 5269 ft 239 kts 58°
2026-05-06 16:39 39.62842 2.92264 5692 ft 256 kts 58°
2026-05-06 16:39 39.63776 2.94346 6066 ft 277 kts 59°
2026-05-06 16:39 39.64754 2.96584 6610 ft 290 kts 60°
2026-05-06 16:40 39.65754 2.98884 7351 ft 295 kts 60°
2026-05-06 16:40 39.66760 3.01230 8115 ft 299 kts 60°
2026-05-06 16:40 39.67773 3.03600 8915 ft 302 kts 60°
2026-05-06 16:40 39.68802 3.05950 9722 ft 304 kts 60°
2026-05-06 16:41 39.69868 3.08326 10463 ft 306 kts 59°
2026-05-06 16:41 39.70967 3.10755 10897 ft 322 kts 60°
2026-05-06 16:41 39.72095 3.13383 11066 ft 345 kts 61°
2026-05-06 16:41 39.73291 3.16201 11217 ft 367 kts 58°
2026-05-06 16:42 39.74964 3.18755 11665 ft 376 kts 38°
2026-05-06 16:42 39.77181 3.20590 12268 ft 380 kts 27°
2026-05-06 16:42 39.79499 3.22278 12897 ft 385 kts 27°
2026-05-06 16:42 39.81857 3.23974 13512 ft 390 kts 26°
2026-05-06 16:43 39.84217 3.25665 14085 ft 395 kts 26°
2026-05-06 16:43 39.86631 3.27397 14642 ft 399 kts 26°
2026-05-06 16:43 39.89071 3.29151 15202 ft 403 kts 26°
2026-05-06 16:43 39.91536 3.30923 15769 ft 406 kts 26°
2026-05-06 16:44 39.94021 3.32714 16328 ft 410 kts 26°
2026-05-06 16:44 39.96524 3.34524 16883 ft 414 kts 26°
2026-05-06 16:44 39.99052 3.36359 17432 ft 418 kts 26°
2026-05-06 16:44 40.01599 3.38211 17983 ft 422 kts 26°
2026-05-06 16:45 40.04173 3.40085 18482 ft 425 kts 26°
2026-05-06 16:45 40.06769 3.41977 18963 ft 429 kts 26°
2026-05-06 16:45 40.09351 3.43860 19430 ft 433 kts 25°
2026-05-06 16:45 40.11992 3.45786 19902 ft 437 kts 25°
2026-05-06 16:46 40.14657 3.47727 20374 ft 440 kts 25°
2026-05-06 16:46 40.17344 3.49683 20832 ft 444 kts 25°
2026-05-06 16:46 40.20048 3.51653 21284 ft 448 kts 25°
2026-05-06 16:46 40.22781 3.53651 21727 ft 451 kts 25°
2026-05-06 16:47 40.25535 3.55667 22154 ft 455 kts 25°
2026-05-06 16:47 40.28308 3.57698 22566 ft 459 kts 25°
2026-05-06 16:47 40.31068 3.59720 22977 ft 462 kts 25°
2026-05-06 16:47 40.33887 3.61786 23375 ft 466 kts 25°
2026-05-06 16:48 40.36723 3.63867 23721 ft 469 kts 25°
2026-05-06 16:48 40.39577 3.65968 24046 ft 472 kts 25°
2026-05-06 16:48 40.42456 3.68090 24355 ft 475 kts 25°
2026-05-06 16:48 40.45348 3.70227 24659 ft 478 kts 25°
2026-05-06 16:49 40.48258 3.72374 24969 ft 481 kts 25°
2026-05-06 16:49 40.51182 3.74528 25272 ft 484 kts 25°
2026-05-06 16:49 40.54131 3.76701 25566 ft 487 kts 25°
2026-05-06 16:49 40.57060 3.78861 25854 ft 490 kts 25°
2026-05-06 16:50 40.60040 3.81065 26140 ft 493 kts 25°
2026-05-06 16:50 40.63034 3.83285 26420 ft 496 kts 25°
2026-05-06 16:50 40.66048 3.85523 26695 ft 499 kts 25°
2026-05-06 16:50 40.69077 3.87774 26975 ft 501 kts 25°
2026-05-06 16:51 40.72125 3.90040 27250 ft 504 kts 25°
2026-05-06 16:51 40.75182 3.92316 27513 ft 506 kts 25°
2026-05-06 16:51 40.78252 3.94605 27772 ft 509 kts 25°
2026-05-06 16:51 40.81301 3.96881 28035 ft 511 kts 25°
2026-05-06 16:52 40.84402 3.99197 28261 ft 514 kts 25°
2026-05-06 16:52 40.87518 4.01526 28508 ft 516 kts 25°
2026-05-06 16:52 40.90652 4.03869 28743 ft 518 kts 25°
2026-05-06 16:52 40.93797 4.06224 28955 ft 521 kts 25°
2026-05-06 16:53 40.96955 4.08589 29176 ft 523 kts 25°
2026-05-06 16:53 41.00128 4.10967 29383 ft 525 kts 25°
2026-05-06 16:53 41.03317 4.13360 29576 ft 528 kts 25°
2026-05-06 16:53 41.06467 4.15728 29799 ft 529 kts 26°
2026-05-06 16:54 41.09668 4.18139 30084 ft 529 kts 26°
2026-05-06 16:54 41.12866 4.20551 30333 ft 529 kts 26°
2026-05-06 16:54 41.16059 4.22964 30583 ft 529 kts 26°
2026-05-06 16:54 41.19257 4.25386 30830 ft 529 kts 26°
2026-05-06 16:55 41.22449 4.27803 31087 ft 528 kts 26°
2026-05-06 16:55 41.25642 4.30223 31342 ft 528 kts 26°
2026-05-06 16:55 41.28788 4.32609 31588 ft 528 kts 26°
2026-05-06 16:55 41.31977 4.35027 31841 ft 528 kts 26°
2026-05-06 16:56 41.35164 4.37441 32102 ft 527 kts 26°
2026-05-06 16:56 41.38351 4.39862 32363 ft 527 kts 26°
2026-05-06 16:56 41.41532 4.42283 32611 ft 527 kts 26°
2026-05-06 16:56 41.44712 4.44708 32859 ft 527 kts 26°
2026-05-06 16:57 41.47893 4.47138 33108 ft 527 kts 26°
2026-05-06 16:57 41.51072 4.49571 33354 ft 527 kts 26°
2026-05-06 16:57 41.54201 4.51968 33607 ft 526 kts 26°
2026-05-06 16:57 41.57378 4.54408 33839 ft 526 kts 26°
2026-05-06 16:58 41.60551 4.56844 34066 ft 526 kts 26°
2026-05-06 16:58 41.63726 4.59281 34291 ft 526 kts 26°
2026-05-06 16:58 41.66895 4.61714 34526 ft 525 kts 26°
2026-05-06 16:58 41.70057 4.64144 34758 ft 524 kts 26°
2026-05-06 16:59 41.73210 4.66574 34992 ft 523 kts 26°
2026-05-06 16:59 41.76348 4.69022 35208 ft 522 kts 27°
2026-05-06 16:59 41.79424 4.71470 35426 ft 521 kts 27°
2026-05-06 16:59 41.82526 4.73972 35648 ft 520 kts 27°
2026-05-06 17:00 41.85611 4.76482 35857 ft 518 kts 27°
2026-05-06 17:00 41.91780 4.81497 35951 ft 518 kts 27°
2026-05-06 17:01 41.97953 4.86482 35948 ft 518 kts 27°
2026-05-06 17:01 42.04125 4.91474 35951 ft 518 kts 27°
2026-05-06 17:02 42.10257 4.96437 35950 ft 518 kts 27°
2026-05-06 17:02 42.16431 5.01450 35943 ft 518 kts 27°
2026-05-06 17:03 42.22607 5.06488 35949 ft 519 kts 27°
2026-05-06 17:03 42.28783 5.11534 35886 ft 517 kts 27°
2026-05-06 17:04 42.34911 5.16551 35938 ft 520 kts 27°
2026-05-06 17:04 42.41092 5.21625 35935 ft 520 kts 28°
2026-05-06 17:05 42.47268 5.26711 35934 ft 519 kts 28°
2026-05-06 17:05 42.53399 5.31766 35932 ft 519 kts 28°
2026-05-06 17:06 42.59562 5.36853 35920 ft 519 kts 28°
2026-05-06 17:06 42.65729 5.41946 35930 ft 519 kts 28°
2026-05-06 17:07 42.71884 5.47065 35928 ft 519 kts 28°
2026-05-06 17:07 42.77995 5.52165 35937 ft 519 kts 28°
2026-05-06 17:08 42.84146 5.57297 35933 ft 518 kts 28°
2026-05-06 17:08 42.90292 5.62428 35942 ft 518 kts 28°
2026-05-06 17:09 42.96433 5.67579 35938 ft 518 kts 28°
2026-05-06 17:09 43.02570 5.72730 35941 ft 518 kts 28°
2026-05-06 17:10 43.08662 5.77855 35933 ft 517 kts 28°
2026-05-06 17:10 43.14791 5.83026 35934 ft 517 kts 28°
2026-05-06 17:11 43.20915 5.88203 35932 ft 517 kts 28°
2026-05-06 17:11 43.26989 5.93354 35931 ft 516 kts 28°
2026-05-06 17:12 43.33098 5.98544 35929 ft 516 kts 28°
2026-05-06 17:12 43.39469 6.02902 35914 ft 507 kts 13°
2026-05-06 17:13 43.46280 6.04729 35911 ft 494 kts 357°
2026-05-06 17:13 43.53090 6.05410 35916 ft 494 kts 358°
2026-05-06 17:14 43.59948 6.06112 35908 ft 494 kts 358°
2026-05-06 17:14 43.66801 6.06805 35905 ft 494 kts 358°
2026-05-06 17:15 43.73651 6.07532 35901 ft 496 kts
2026-05-06 17:15 43.80329 6.10031 35900 ft 508 kts 20°
2026-05-06 17:16 43.86696 6.14346 35895 ft 510 kts 22°
2026-05-06 17:16 43.93053 6.18688 35899 ft 509 kts 22°
2026-05-06 17:17 43.99416 6.23029 35902 ft 510 kts 22°
2026-05-06 17:17 44.05730 6.27355 35910 ft 509 kts 22°
2026-05-06 17:18 44.12081 6.31717 35910 ft 509 kts 22°
2026-05-06 17:18 44.18427 6.36093 35913 ft 509 kts 23°
2026-05-06 17:19 44.24767 6.40479 35910 ft 509 kts 23°
2026-05-06 17:19 44.31072 6.44834 35923 ft 509 kts 23°
2026-05-06 17:20 44.37405 6.49223 35922 ft 508 kts 23°
2026-05-06 17:20 44.43657 6.53570 35927 ft 508 kts 23°
2026-05-06 17:21 44.49980 6.57974 35924 ft 507 kts 23°
2026-05-06 17:21 44.56251 6.62358 35930 ft 507 kts 24°
2026-05-06 17:22 44.62561 6.66776 35908 ft 506 kts 23°
2026-05-06 17:22 44.68867 6.71195 35913 ft 506 kts 24°
2026-05-06 17:23 44.75167 6.75601 35898 ft 504 kts 20°
2026-05-06 17:23 44.81762 6.78321 35983 ft 493 kts
2026-05-06 17:23 44.85146 6.78681 35862 ft 482 kts 355°
2026-05-06 17:24 44.88469 6.78506 35863 ft 477 kts 352°
2026-05-06 17:24 44.95109 6.78049 35863 ft 478 kts 352°
2026-05-06 17:25 45.01778 6.77616 35875 ft 481 kts 353°
2026-05-06 17:25 45.05131 6.77882 35868 ft 488 kts
2026-05-06 17:25 45.08337 6.79318 35876 ft 493 kts 23°
2026-05-06 17:26 45.14462 6.83728 35878 ft 495 kts 25°
2026-05-06 17:26 45.20579 6.88211 35883 ft 495 kts 25°
2026-05-06 17:27 45.26704 6.92708 35885 ft 496 kts 25°
2026-05-06 17:27 45.32836 6.97211 35888 ft 497 kts 25°
2026-05-06 17:28 45.38937 7.01693 35885 ft 497 kts 26°
2026-05-06 17:28 45.45081 7.06215 35886 ft 497 kts 25°
2026-05-06 17:29 45.51229 7.10748 35881 ft 498 kts 25°
2026-05-06 17:29 45.57378 7.15292 35877 ft 498 kts 26°
2026-05-06 17:30 45.63485 7.19828 35861 ft 498 kts 26°
2026-05-06 17:30 45.69628 7.24407 35864 ft 498 kts 26°
2026-05-06 17:31 45.75779 7.28996 35871 ft 498 kts 26°
2026-05-06 17:31 45.81929 7.33579 35863 ft 498 kts 26°
2026-05-06 17:32 45.88033 7.38152 35872 ft 498 kts 26°
2026-05-06 17:32 45.94178 7.42776 35879 ft 499 kts 26°
2026-05-06 17:33 46.00324 7.47407 35923 ft 498 kts 26°
2026-05-06 17:33 46.06473 7.52043 35929 ft 499 kts 26°
2026-05-06 17:34 46.12580 7.56666 35927 ft 499 kts 26°
2026-05-06 17:34 46.18722 7.61333 35933 ft 499 kts 26°
2026-05-06 17:35 46.24866 7.66008 35937 ft 499 kts 26°
2026-05-06 17:35 46.31002 7.70691 35926 ft 498 kts 26°
2026-05-06 17:36 46.40162 7.77693 35927 ft 499 kts 26°
2026-05-06 17:36 46.46293 7.82403 35932 ft 498 kts 27°
2026-05-06 17:37 46.52412 7.87116 35932 ft 498 kts 26°
2026-05-06 17:37 46.58528 7.91832 35929 ft 498 kts 27°
2026-05-06 17:38 46.64599 7.96526 35930 ft 497 kts 27°
2026-05-06 17:38 46.70700 8.01255 35928 ft 497 kts 26°
2026-05-06 17:39 46.76797 8.05995 35932 ft 497 kts 27°
2026-05-06 17:39 46.82849 8.10718 35925 ft 496 kts 27°
2026-05-06 17:40 46.88934 8.15478 35899 ft 496 kts 27°
2026-05-06 17:40 46.94974 8.20209 35904 ft 495 kts 27°
2026-05-06 17:41 47.01045 8.24979 35909 ft 495 kts 27°
2026-05-06 17:41 47.07068 8.29723 35906 ft 494 kts 27°
2026-05-06 17:42 47.13122 8.34500 35908 ft 494 kts 27°
2026-05-06 17:42 47.19173 8.39284 35907 ft 493 kts 27°
2026-05-06 17:43 47.25216 8.44083 35912 ft 493 kts 27°
2026-05-06 17:43 47.31250 8.48900 35926 ft 493 kts 27°
2026-05-06 17:44 47.37238 8.53682 35928 ft 493 kts 27°
2026-05-06 17:44 47.43272 8.58513 35928 ft 493 kts 27°
2026-05-06 17:45 47.49299 8.63349 35922 ft 493 kts 27°
2026-05-06 17:45 47.55324 8.68191 35920 ft 493 kts 27°
2026-05-06 17:46 47.61305 8.73003 35917 ft 492 kts 27°
2026-05-06 17:46 47.67319 8.77864 35912 ft 492 kts 28°
2026-05-06 17:47 47.73319 8.82737 35900 ft 491 kts 28°
2026-05-06 17:47 47.79319 8.87615 35896 ft 491 kts 28°
2026-05-06 17:48 47.85264 8.92461 35898 ft 490 kts 28°
2026-05-06 17:48 47.91237 8.97339 35891 ft 490 kts 28°
2026-05-06 17:49 47.97207 9.02238 35888 ft 489 kts 28°
2026-05-06 17:49 48.03167 9.07143 35888 ft 489 kts 28°
2026-05-06 17:50 48.09079 9.12008 35885 ft 488 kts 28°
2026-05-06 17:50 48.15096 9.16701 35874 ft 487 kts 20°
2026-05-06 17:51 48.21617 9.19120 35878 ft 482 kts
2026-05-06 17:51 48.28291 9.20211 35874 ft 482 kts
2026-05-06 17:52 48.34960 9.21343 35865 ft 482 kts
2026-05-06 17:52 48.41516 9.22459 35859 ft 482 kts
2026-05-06 17:53 48.48189 9.23594 35850 ft 482 kts
2026-05-06 17:53 48.54858 9.24739 35844 ft 483 kts
2026-05-06 17:54 48.61530 9.25875 35840 ft 483 kts
2026-05-06 17:54 48.68207 9.26942 35842 ft 482 kts
2026-05-06 17:55 48.74842 9.27920 35839 ft 482 kts
2026-05-06 17:55 48.81528 9.28910 35840 ft 482 kts
2026-05-06 17:56 48.88206 9.29935 35839 ft 483 kts
2026-05-06 17:56 48.94892 9.30976 35835 ft 483 kts
2026-05-06 17:57 49.01531 9.32009 35832 ft 483 kts
2026-05-06 17:57 49.08216 9.33043 35831 ft 483 kts
2026-05-06 17:58 49.14905 9.34077 35828 ft 483 kts
2026-05-06 17:58 49.21597 9.35116 35827 ft 483 kts
2026-05-06 17:59 49.28247 9.36153 35824 ft 483 kts
2026-05-06 17:59 49.34934 9.37200 35821 ft 483 kts
2026-05-06 18:00 49.41626 9.38251 35819 ft 483 kts
2026-05-06 18:00 49.48321 9.39294 35819 ft 483 kts
2026-05-06 18:01 49.54961 9.40342 35819 ft 483 kts
2026-05-06 18:01 49.61650 9.41407 35816 ft 483 kts
2026-05-06 18:02 49.68331 9.42467 35820 ft 483 kts
2026-05-06 18:02 49.75012 9.43531 35811 ft 483 kts
2026-05-06 18:03 49.81643 9.44603 35808 ft 483 kts
2026-05-06 18:03 49.88327 9.45682 35804 ft 483 kts
2026-05-06 18:04 49.95007 9.46754 35791 ft 483 kts
2026-05-06 18:04 50.01690 9.47840 35802 ft 483 kts
2026-05-06 18:05 50.08372 9.48922 35800 ft 483 kts
2026-05-06 18:05 50.15003 9.50060 35800 ft 483 kts
2026-05-06 18:06 50.21685 9.51257 35801 ft 483 kts
2026-05-06 18:06 50.28364 9.52458 35798 ft 483 kts
2026-05-06 18:07 50.35042 9.53648 35802 ft 483 kts
2026-05-06 18:07 50.41677 9.54833 35800 ft 483 kts
2026-05-06 18:08 50.48349 9.56016 35796 ft 483 kts
2026-05-06 18:08 50.55025 9.57207 35802 ft 482 kts
2026-05-06 18:09 50.61646 9.58390 35807 ft 482 kts
2026-05-06 18:09 50.68304 9.59593 35811 ft 481 kts
2026-05-06 18:10 50.74955 9.60792 35812 ft 481 kts
2026-05-06 18:10 50.81601 9.61999 35810 ft 480 kts
2026-05-06 18:11 50.88188 9.63188 35814 ft 479 kts
2026-05-06 18:11 50.94815 9.64391 35818 ft 479 kts
2026-05-06 18:12 51.01426 9.65608 35823 ft 478 kts
2026-05-06 18:12 51.08033 9.66822 35824 ft 477 kts
2026-05-06 18:13 51.14582 9.68011 35828 ft 476 kts
2026-05-06 18:13 51.21159 9.69219 35829 ft 475 kts
2026-05-06 18:14 51.27730 9.70342 35832 ft 474 kts
2026-05-06 18:14 51.34296 9.71371 35831 ft 474 kts
2026-05-06 18:15 51.40852 9.72400 35828 ft 473 kts
2026-05-06 18:15 51.47358 9.73454 35826 ft 473 kts
2026-05-06 18:16 51.53902 9.74633 35824 ft 473 kts
2026-05-06 18:16 51.60433 9.75916 35821 ft 473 kts
2026-05-06 18:17 51.66967 9.77192 35819 ft 473 kts
2026-05-06 18:17 51.73455 9.78422 35818 ft 473 kts
2026-05-06 18:18 51.79986 9.79655 35819 ft 473 kts
2026-05-06 18:18 51.86516 9.80901 35822 ft 472 kts
2026-05-06 18:19 51.93043 9.82152 35825 ft 472 kts
2026-05-06 18:19 51.99523 9.83413 35833 ft 472 kts
2026-05-06 18:20 52.06042 9.84684 35828 ft 472 kts
2026-05-06 18:20 52.12520 9.85956 35824 ft 472 kts
2026-05-06 18:21 52.19067 9.87236 35837 ft 472 kts
2026-05-06 18:21 52.25529 9.88658 35848 ft 473 kts 11°
2026-05-06 18:22 52.31898 9.91416 35828 ft 472 kts 13°
2026-05-06 18:22 52.35067 9.92816 34438 ft 477 kts 13°
2026-05-06 18:22 52.38307 9.94241 32622 ft 485 kts 13°
2026-05-06 18:23 52.41574 9.95671 30833 ft 487 kts 13°
2026-05-06 18:23 52.44808 9.97087 29916 ft 472 kts 13°
2026-05-06 18:23 52.47928 9.98460 28974 ft 457 kts 13°
2026-05-06 18:23 52.50924 9.99787 27936 ft 448 kts 13°
2026-05-06 18:24 52.53906 10.01114 26879 ft 440 kts 13°
2026-05-06 18:24 52.56834 10.02422 25848 ft 434 kts 13°
2026-05-06 18:24 52.59726 10.03716 24848 ft 428 kts 13°
2026-05-06 18:24 52.62581 10.04992 23877 ft 423 kts 13°
2026-05-06 18:25 52.65402 10.06251 22852 ft 418 kts 13°
2026-05-06 18:25 52.68194 10.07496 21828 ft 413 kts 13°
2026-05-06 18:25 52.70987 10.08333 20883 ft 404 kts
2026-05-06 18:25 52.73738 10.08565 19943 ft 399 kts
2026-05-06 18:26 52.76495 10.08793 19081 ft 395 kts
2026-05-06 18:26 52.79222 10.09015 18220 ft 390 kts
2026-05-06 18:26 52.81918 10.09234 17269 ft 386 kts
2026-05-06 18:26 52.84582 10.09446 16358 ft 380 kts
2026-05-06 18:27 52.87219 10.09651 15687 ft 379 kts
2026-05-06 18:27 52.89848 10.09856 15249 ft 376 kts
2026-05-06 18:27 52.92447 10.10061 14914 ft 373 kts
2026-05-06 18:27 52.95042 10.10266 14849 ft 373 kts
2026-05-06 18:28 52.97640 10.10466 14866 ft 374 kts
2026-05-06 18:28 53.00237 10.10673 14848 ft 373 kts
2026-05-06 18:28 53.02812 10.10883 14469 ft 368 kts
2026-05-06 18:28 53.05295 10.11080 14350 ft 356 kts
2026-05-06 18:29 53.07729 10.11275 14223 ft 345 kts
2026-05-06 18:29 53.10084 10.11466 14100 ft 332 kts
2026-05-06 18:29 53.12335 10.11648 13755 ft 318 kts
2026-05-06 18:29 53.14526 10.11818 13193 ft 312 kts
2026-05-06 18:30 53.16679 10.11985 12578 ft 308 kts
2026-05-06 18:30 53.18808 10.12152 11941 ft 305 kts
2026-05-06 18:30 53.20912 10.12318 11322 ft 301 kts
2026-05-06 18:30 53.22995 10.12480 10739 ft 297 kts
2026-05-06 18:31 53.25042 10.12644 10160 ft 293 kts
2026-05-06 18:31 53.27062 10.12812 9571 ft 288 kts
2026-05-06 18:31 53.28999 10.12403 8951 ft 284 kts 341°
2026-05-06 18:31 53.30794 10.11064 8303 ft 282 kts 335°
2026-05-06 18:32 53.32364 10.09724 7714 ft 278 kts 334°
2026-05-06 18:32 53.34067 10.08248 7101 ft 274 kts 334°
2026-05-06 18:32 53.35182 10.07279 6674 ft 271 kts 334°
2026-05-06 18:32 53.35229 10.07238 6663 ft 271 kts 334°
2026-05-06 18:33 53.36964 10.05834 5989 ft 267 kts 335°
2026-05-06 18:33 53.38611 10.04409 5303 ft 265 kts 334°
2026-05-06 18:33 53.40237 10.02967 5045 ft 265 kts 334°
2026-05-06 18:33 53.41867 10.01508 5003 ft 266 kts 334°
2026-05-06 18:34 53.43385 9.99812 5011 ft 269 kts 316°
2026-05-06 18:34 53.44343 9.97118 5007 ft 274 kts 287°
2026-05-06 18:34 53.44447 9.93929 5007 ft 278 kts 260°
2026-05-06 18:34 53.43997 9.90777 5008 ft 277 kts 255°
2026-05-06 18:35 53.43485 9.87761 5003 ft 259 kts 254°
2026-05-06 18:35 53.42994 9.84929 5007 ft 250 kts 254°
2026-05-06 18:35 53.42506 9.82148 4999 ft 248 kts 254°
2026-05-06 18:35 53.42023 9.79389 4685 ft 246 kts 254°
2026-05-06 18:36 53.41538 9.76635 4295 ft 247 kts 254°
2026-05-06 18:36 53.41058 9.73879 3944 ft 245 kts 257°
2026-05-06 18:36 53.41005 9.71115 3597 ft 240 kts 288°
2026-05-06 18:36 53.41772 9.68710 3235 ft 233 kts 315°
2026-05-06 18:37 53.43016 9.67080 3006 ft 222 kts 339°
2026-05-06 18:37 53.43963 9.66509 2998 ft 207 kts 352°
2026-05-06 18:37 53.45723 9.66456 2998 ft 179 kts 16°
2026-05-06 18:37 53.46857 9.67120 3004 ft 169 kts 32°
2026-05-06 18:38 53.47794 9.68245 3006 ft 164 kts 47°
2026-05-06 18:38 53.48539 9.69683 3006 ft 163 kts 51°
2026-05-06 18:38 53.49269 9.71139 3006 ft 163 kts 52°
2026-05-06 18:38 53.49977 9.72554 3000 ft 153 kts 52°
2026-05-06 18:39 53.50634 9.73867 3060 ft 143 kts 51°
2026-05-06 18:39 53.51254 9.75107 2993 ft 135 kts 52°
2026-05-06 18:39 53.51849 9.76300 3033 ft 132 kts 52°
2026-05-06 18:40 53.53012 9.78630 2831 ft 129 kts 52°
2026-05-06 18:40 53.53585 9.79781 2669 ft 128 kts 52°
2026-05-06 18:40 53.54157 9.80928 2508 ft 128 kts 52°
2026-05-06 18:40 53.54725 9.82069 2339 ft 127 kts 52°
2026-05-06 18:41 53.55291 9.83205 2164 ft 126 kts 52°
2026-05-06 18:41 53.55842 9.84314 1995 ft 125 kts 51°
2026-05-06 18:41 53.56401 9.85438 1826 ft 125 kts 52°
2026-05-06 18:41 53.56955 9.86552 1659 ft 124 kts 52°
2026-05-06 18:42 53.57509 9.87667 1482 ft 124 kts 51°
2026-05-06 18:42 53.58063 9.88784 1305 ft 125 kts 51°
2026-05-06 18:42 53.58623 9.89910 1135 ft 125 kts 51°
2026-05-06 18:42 53.59184 9.91033 944 ft 126 kts 51°
2026-05-06 18:43 53.59745 9.92182 730 ft 127 kts 51°
2026-05-06 18:43 53.60317 9.93336 553 ft 130 kts 49°
2026-05-06 18:43 53.60902 9.94500 446 ft 131 kts 51°
2026-05-06 18:43 53.61484 9.95684 218 ft 131 kts 50°
2026-05-06 18:44 53.62048 9.96828 89 ft 128 kts 50°
2026-05-06 18:44 53.62585 9.97904 52 ft 101 kts 49°
2026-05-06 18:44 53.62927 9.98602 51 ft 59 kts 50°
2026-05-06 18:44 53.63172 9.99090 53 ft 51 kts 50°
2026-05-06 18:45 53.63384 9.99524 52 ft 46 kts 50°
2026-05-06 18:45 53.63578 9.99918 51 ft 33 kts 51°
2026-05-06 18:45 53.63634 10.00156 51 ft 19 kts 101°
2026-05-06 18:45 53.63626 10.00188 50 ft 0 kts 120°
2026-05-06 18:46 53.63623 10.00197 49 ft 6 kts 121°
2026-05-06 18:46 53.63571 10.00274 51 ft 0 kts 160°
2026-05-06 18:46 53.63567 10.00275 51 ft 4 kts 167°
2026-05-06 18:47 53.63492 10.00221 51 ft 18 kts 197°
2026-05-06 18:47 53.63376 10.00223 51 ft 16 kts 175°
2026-05-06 18:47 53.63271 10.00237 50 ft 14 kts 176°
2026-05-06 18:47 53.63183 10.00249 51 ft 7 kts 169°
2026-05-06 18:48 53.63167 10.00313 51 ft 5 kts 92°
2026-05-06 18:48 53.63168 10.00369 51 ft 4 kts 87°
2026-05-06 18:48 53.63168 10.00371 51 ft 0 kts 87°